Weather History for Hayward, WI

Change the Weather History Date:

Monday, July 27, 2009

  Actual Average Record
Temperature  
Mean Temperature 66 °F -  
Max Temperature 79 °F 74 °F 95 °F (2006)
Min Temperature 55 °F 56 °F 39 °F (2005)
Cooling Degree Days 2    
Growing Degree Days 16 (Base 50)    
Moisture  
Dew Point 58 °F    
Average Humidity 84    
Maximum Humidity 100    
Minimum Humidity 58    
Precipitation  
Precipitation 0.00 in - - ()
Sea Level Pressure  
Sea Level Pressure 29.82 in    
Wind  
Wind Speed 1 mph (SW)    
Max Wind Speed 8 mph    
Max Gust Speed -    
Visibility 7 miles    
Events Thunderstorm    
Averages and records for this station are not official NWS values.
T = Trace of Precipitation, MM = Missing Value Source: NWS Daily Summary

Daily Weather History Graph

Daily Weather History Graph

Search for Another Location

Airport:

Trip Planner

Search our weather history database for the weather conditions in past years. The results will help you decide how hot, cold, wet, or windy it might be!

Date:

Astronomy

Jul. 27, 2009 Rise Set
Actual Time 5:42 AM CDT 8:41 PM CDT
Civil Twilight 5:07 AM CDT 9:16 PM CDT
Nautical Twilight 4:22 AM CDT 10:01 PM CDT
Astronomical Twilight 3:27 AM CDT 10:55 PM CDT
Moon 12:48 PM CDT (7/27) 11:06 PM CDT (7/27)
Length of Visible Light 16h 09m
Length of Day
14h 58m
Waxing Crescent, 37% of the Moon is Illuminated
Jul 27
Waxing Crescent
Jul 28
First Quarter
Aug 5
Full
Aug 13
Last Quarter
Aug 20
New

Hourly Weather History & Observations

Time (CDT) Temp. Dew Point Humidity Pressure Visibility Wind Dir Wind Speed Gust Speed Precip Events Conditions
12:53 AM 60.1 °F 57.9 °F 93% 29.86 in 9.0 mi Calm Calm - N/A   Mostly Cloudy
1:47 AM 57.2 °F 55.4 °F 94% 29.87 in 1.5 mi Calm Calm - N/A   Scattered Clouds
1:51 AM 55.4 °F 55.4 °F 100% 29.87 in 0.8 mi Calm Calm - N/A   Mostly Cloudy
1:53 AM 57.0 °F 55.9 °F 96% 29.86 in 0.8 mi Calm Calm - N/A   Mostly Cloudy
1:56 AM 57.2 °F 55.4 °F 94% 29.86 in 1.2 mi Calm Calm - N/A   Mostly Cloudy
2:04 AM 57.2 °F 55.4 °F 94% 29.86 in 10.0 mi Calm Calm - N/A   Scattered Clouds
2:53 AM 57.0 °F 55.0 °F 93% 29.86 in 6.0 mi Calm Calm - N/A   Mostly Cloudy
3:32 AM 55.4 °F 53.6 °F 94% 29.86 in 6.0 mi Calm Calm - N/A   Scattered Clouds
3:37 AM 55.4 °F 53.6 °F 94% 29.86 in 1.5 mi Calm Calm - N/A   Mostly Cloudy
3:40 AM 55.4 °F 53.6 °F 94% 29.86 in 0.8 mi Calm Calm - N/A   Mostly Cloudy
3:47 AM 55.4 °F 55.4 °F 100% 29.86 in 1.2 mi Calm Calm - N/A   Scattered Clouds
3:51 AM 55.4 °F 55.4 °F 100% 29.86 in 3.0 mi Calm Calm - N/A   Scattered Clouds
3:53 AM 55.9 °F 55.0 °F 97% 29.86 in 4.0 mi Calm Calm - N/A   Scattered Clouds
4:04 AM 57.2 °F 55.4 °F 94% 29.86 in 1.8 mi Calm Calm - N/A   Partly Cloudy
4:13 AM 57.2 °F 55.4 °F 94% 29.86 in 3.0 mi Calm Calm - N/A   Scattered Clouds
4:23 AM 57.2 °F 55.4 °F 94% 29.86 in 2.0 mi Calm Calm - N/A   Mostly Cloudy
4:33 AM 57.2 °F 55.4 °F 94% 29.86 in 8.0 mi South 3.5 mph - N/A   Mostly Cloudy
4:53 AM 57.0 °F 55.9 °F 96% 29.85 in 7.0 mi Calm Calm - N/A   Overcast
5:53 AM 57.9 °F 57.0 °F 97% 29.85 in 7.0 mi Calm Calm - N/A   Mostly Cloudy
6:53 AM 57.9 °F 57.0 °F 97% 29.85 in 6.0 mi Calm Calm - N/A   Clear
7:53 AM 64.0 °F 60.1 °F 87% 29.85 in 10.0 mi Calm Calm - N/A   Scattered Clouds
8:53 AM 66.9 °F 59.0 °F 76% 29.83 in 10.0 mi SSW 3.5 mph - N/A   Overcast
9:53 AM 68.0 °F 59.0 °F 73% 29.83 in 10.0 mi Calm Calm - N/A   Overcast
10:53 AM 68.0 °F 62.1 °F 81% 29.83 in 10.0 mi Variable 4.6 mph - N/A   Mostly Cloudy
11:53 AM 69.1 °F 62.1 °F 78% 29.82 in 10.0 mi SSW 4.6 mph - N/A   Partly Cloudy
12:53 PM 72.0 °F 62.1 °F 71% 29.81 in 10.0 mi Variable 6.9 mph - N/A   Scattered Clouds
1:38 PM 73.4 °F 62.6 °F 69% 29.80 in 10.0 mi Variable 5.8 mph - N/A   Overcast
1:53 PM 73.9 °F 62.1 °F 66% 29.79 in 10.0 mi Variable 5.8 mph - N/A   Overcast
2:01 PM 75.2 °F 62.6 °F 65% 29.79 in 10.0 mi SW 8.1 mph - N/A   Mostly Cloudy
2:53 PM 77.0 °F 63.0 °F 62% 29.76 in 10.0 mi Variable 6.9 mph - N/A   Scattered Clouds
3:53 PM 78.1 °F 62.1 °F 58% 29.75 in 10.0 mi Variable 4.6 mph - N/A   Scattered Clouds
4:53 PM 77.0 °F 61.0 °F 58% 29.75 in 10.0 mi Variable 4.6 mph - N/A   Scattered Clouds
5:53 PM 77.0 °F 61.0 °F 58% 29.74 in 10.0 mi Variable 6.9 mph - N/A   Partly Cloudy
6:53 PM 75.0 °F 62.1 °F 64% 29.72 in 10.0 mi Variable 5.8 mph - N/A   Partly Cloudy
7:45 PM 69.8 °F 64.4 °F 83% 29.74 in 10.0 mi West 8.1 mph - 0.00 in Thunderstorm Overcast
7:53 PM 69.1 °F 64.0 °F 84% 29.73 in 10.0 mi Calm Calm - 0.00 in Thunderstorm Overcast
8:07 PM 69.8 °F 62.6 °F 78% 29.74 in 10.0 mi Calm Calm - N/A   Overcast
8:53 PM 68.0 °F 61.0 °F 78% 29.74 in 10.0 mi Calm Calm - N/A   Overcast
9:53 PM 63.0 °F 61.0 °F 93% 29.76 in 10.0 mi Calm Calm - N/A   Scattered Clouds
10:53 PM 66.9 °F 57.0 °F 70% 29.77 in 10.0 mi Calm Calm - N/A   Partly Cloudy
11:53 PM 64.9 °F 54.0 °F 68% 29.77 in 10.0 mi Calm Calm - N/A   Clear